Station Historical Data
Daily Summary for August 14, 2017 Units:  English    Metric   Both
« Previous Day
Next Day »
Daily Weekly Monthly Yearly Custom
  High: Low: Average:
Temperature: 82.4 °F 59.5 °F 71.4 °F
Dew Point: 66.9 °F 55.3 °F 60.4 °F
Humidity: 87% 47% 70%
Wind Speed: 7.0mph 0.0mph 0.9mph
Wind Gust: 9.0mph - -
Wind- - SSW
Pressure: 30.03 in 29.83 in -
Precipitation: 0.00 in    
Historical Graphs
 
 
Tabular Data for August 14, 2017
Time Temperature Dew Point Pressure Wind Wind Speed Wind Gust Humidity Rainfall Rate (Hourly)
00:04 63.9 °F 58.0 °F 30.02 in Calm     81% 0.00 in
00:09 63.8 °F 57.9 °F 30.02 in Calm     81% 0.00 in
00:14 63.7 °F 58.1 °F 30.02 in Calm     82% 0.00 in
00:19 63.7 °F 57.8 °F 30.02 in Calm   2.0 mph 81% 0.00 in
00:24 63.7 °F 57.8 °F 30.02 in Calm   1.0 mph 81% 0.00 in
00:29 63.7 °F 57.8 °F 30.02 in Calm   2.0 mph 81% 0.00 in
00:34 63.7 °F 57.8 °F 30.02 in Calm   2.0 mph 81% 0.00 in
00:39 63.6 °F 57.7 °F 30.02 in Calm     81% 0.00 in
00:44 63.6 °F 58.0 °F 30.02 in Calm     82% 0.00 in
00:49 63.5 °F 57.9 °F 30.03 in Calm     82% 0.00 in
00:54 63.5 °F 57.9 °F 30.02 in Calm     82% 0.00 in
00:59 63.4 °F 57.8 °F 30.03 in Calm     82% 0.00 in
01:04 63.2 °F 57.6 °F 30.02 in Calm     82% 0.00 in
01:09 63.2 °F 57.6 °F 30.02 in Calm     82% 0.00 in
01:14 63.2 °F 57.6 °F 30.02 in Calm     82% 0.00 in
01:19 63.1 °F 57.5 °F 30.02 in Calm     82% 0.00 in
01:24 63.0 °F 57.4 °F 30.02 in Calm     82% 0.00 in
01:29 62.9 °F 57.3 °F 30.02 in Calm     82% 0.00 in
01:34 62.9 °F 57.3 °F 30.02 in Calm     82% 0.00 in
01:39 62.9 °F 57.3 °F 30.01 in Calm     82% 0.00 in
01:44 62.9 °F 57.3 °F 30.01 in Calm     82% 0.00 in
01:49 63.0 °F 57.4 °F 30.01 in Calm     82% 0.00 in
01:54 63.0 °F 57.4 °F 30.02 in Calm     82% 0.00 in
01:59 62.9 °F 57.3 °F 30.01 in Calm     82% 0.00 in
02:04 62.9 °F 57.3 °F 30.01 in Calm     82% 0.00 in
02:09 62.8 °F 57.2 °F 30.01 in Calm     82% 0.00 in
02:14 62.7 °F 57.1 °F 30.01 in Calm     82% 0.00 in
02:19 62.5 °F 56.9 °F 30.01 in Calm     82% 0.00 in
02:24 62.3 °F 56.7 °F 30.01 in Calm     82% 0.00 in
02:29 62.1 °F 56.5 °F 30.01 in Calm     82% 0.00 in
02:34 61.9 °F 56.7 °F 30.01 in Calm     83% 0.00 in
02:39 61.8 °F 56.6 °F 30.01 in Calm     83% 0.00 in
02:44 61.6 °F 56.4 °F 30.01 in Calm     83% 0.00 in
02:49 61.4 °F 56.5 °F 30.01 in Calm     84% 0.00 in
02:54 61.4 °F 56.5 °F 30.01 in Calm     84% 0.00 in
02:59 61.3 °F 56.4 °F 30.01 in Calm     84% 0.00 in
03:04 61.1 °F 56.2 °F 30.01 in Calm     84% 0.00 in
03:09 61.0 °F 56.5 °F 30.02 in Calm     85% 0.00 in
03:14 60.9 °F 56.4 °F 30.01 in Calm     85% 0.00 in
03:19 60.7 °F 56.2 °F 30.01 in Calm     85% 0.00 in
03:24 60.7 °F 56.2 °F 30.01 in Calm     85% 0.00 in
03:29 60.6 °F 56.1 °F 30.01 in Calm     85% 0.00 in
03:34 60.6 °F 56.1 °F 30.01 in Calm     85% 0.00 in
03:39 60.5 °F 56.0 °F 30.01 in Calm     85% 0.00 in
03:44 60.4 °F 55.9 °F 30.01 in Calm     85% 0.00 in
03:49 60.3 °F 55.8 °F 30.01 in Calm     85% 0.00 in
03:54 60.2 °F 55.7 °F 30.01 in Calm     85% 0.00 in
03:59 60.2 °F 55.7 °F 30.02 in Calm     85% 0.00 in
04:04 60.0 °F 55.8 °F 30.01 in Calm     86% 0.00 in
04:09 59.8 °F 55.6 °F 30.01 in Calm     86% 0.00 in
04:14 59.7 °F 55.5 °F 30.01 in Calm     86% 0.00 in
04:19 59.7 °F 55.5 °F 30.01 in Calm     86% 0.00 in
04:24 59.5 °F 55.3 °F 30.01 in Calm     86% 0.00 in
04:29 59.5 °F 55.3 °F 30.01 in Calm     86% 0.00 in
04:34 59.6 °F 55.7 °F 30.01 in Calm     87% 0.00 in
04:39 59.6 °F 55.7 °F 30.01 in Calm     87% 0.00 in
04:44 59.6 °F 55.7 °F 30.01 in Calm     87% 0.00 in
04:49 59.6 °F 55.7 °F 30.01 in Calm     87% 0.00 in
04:54 59.7 °F 55.8 °F 30.01 in Calm     87% 0.00 in
04:59 59.7 °F 55.8 °F 30.01 in Calm     87% 0.00 in
05:04 59.7 °F 55.8 °F 30.01 in Calm     87% 0.00 in
05:09 59.7 °F 55.5 °F 30.01 in Calm     86% 0.00 in
05:14 59.7 °F 55.5 °F 30.01 in Calm     86% 0.00 in
05:19 59.7 °F 55.8 °F 30.01 in Calm     87% 0.00 in
05:24 59.8 °F 55.9 °F 30.01 in Calm     87% 0.00 in
05:29 59.8 °F 55.9 °F 30.01 in Calm     87% 0.00 in
05:34 59.8 °F 55.9 °F 30.01 in Calm     87% 0.00 in
05:39 59.9 °F 55.7 °F 30.01 in Calm     86% 0.00 in
05:44 60.0 °F 55.8 °F 30.01 in Calm     86% 0.00 in
05:49 60.2 °F 56.0 °F 30.01 in Calm     86% 0.00 in
05:54 60.3 °F 56.1 °F 30.01 in Calm     86% 0.00 in
05:59 60.4 °F 56.2 °F 30.00 in Calm     86% 0.00 in
06:04 60.5 °F 56.3 °F 30.01 in Calm     86% 0.00 in
06:09 60.5 °F 56.3 °F 30.01 in Calm     86% 0.00 in
06:14 60.6 °F 56.4 °F 30.01 in Calm     86% 0.00 in
06:19 60.7 °F 56.2 °F 30.01 in Calm     85% 0.00 in
06:24 60.7 °F 56.2 °F 30.01 in Calm     85% 0.00 in
06:29 60.7 °F 56.2 °F 30.01 in Calm     85% 0.00 in
06:34 60.7 °F 56.2 °F 30.01 in Calm     85% 0.00 in
06:39 60.7 °F 56.2 °F 30.01 in Calm     85% 0.00 in
06:44 60.7 °F 56.2 °F 30.01 in Calm     85% 0.00 in
06:49 60.8 °F 56.3 °F 30.01 in Calm     85% 0.00 in
06:54 60.8 °F 56.3 °F 30.01 in Calm     85% 0.00 in
06:59 60.9 °F 56.4 °F 30.01 in Calm     85% 0.00 in
07:04 61.0 °F 56.5 °F 30.01 in Calm     85% 0.00 in
07:09 61.0 °F 56.1 °F 30.00 in Calm     84% 0.00 in
07:14 61.2 °F 56.3 °F 30.00 in Calm     84% 0.00 in
07:19 61.4 °F 56.5 °F 30.00 in Calm     84% 0.00 in
07:24 61.6 °F 56.7 °F 30.00 in Calm     84% 0.00 in
07:29 61.8 °F 56.6 °F 30.00 in Calm     83% 0.00 in
07:34 62.0 °F 56.8 °F 30.00 in Calm     83% 0.00 in
07:39 62.5 °F 56.9 °F 29.99 in Calm   3.0 mph 82% 0.00 in
07:44 62.7 °F 56.8 °F 29.99 in Calm   3.0 mph 81% 0.00 in
07:49 63.0 °F 57.1 °F 29.99 in SSE 2.0 mph 4.0 mph 81% 0.00 in
07:54 63.2 °F 56.9 °F 29.99 in ESE 1.0 mph 4.0 mph 80% 0.00 in
07:59 63.5 °F 57.2 °F 29.99 in ESE 1.0 mph 5.0 mph 80% 0.00 in
08:04 64.2 °F 57.5 °F 29.99 in ESE 2.0 mph 5.0 mph 79% 0.00 in
08:09 64.7 °F 57.7 °F 29.99 in Calm   4.0 mph 78% 0.00 in
08:14 65.4 °F 58.0 °F 29.99 in SE 2.0 mph 4.0 mph 77% 0.00 in
08:19 66.2 °F 58.4 °F 29.99 in SSE 2.0 mph 4.0 mph 76% 0.00 in
08:24 67.1 °F 58.9 °F 29.99 in South 3.0 mph 6.0 mph 75% 0.00 in
08:29 67.6 °F 58.6 °F 29.99 in SSE 3.0 mph 6.0 mph 73% 0.00 in
08:34 67.3 °F 58.3 °F 29.99 in ESE 2.0 mph 3.0 mph 73% 0.00 in
08:39 67.9 °F 58.9 °F 29.99 in SE 3.0 mph 3.0 mph 73% 0.00 in
08:44 68.7 °F 59.3 °F 29.98 in SE 2.0 mph 4.0 mph 72% 0.00 in
08:49 68.9 °F 59.5 °F 29.99 in SSE 2.0 mph 6.0 mph 72% 0.00 in
08:54 69.1 °F 59.3 °F 29.99 in SSW 1.0 mph 4.0 mph 71% 0.00 in
08:59 69.5 °F 59.3 °F 29.99 in South 2.0 mph 5.0 mph 70% 0.00 in
09:04 69.9 °F 59.3 °F 29.99 in SSW 2.0 mph 5.0 mph 69% 0.00 in
09:09 70.1 °F 59.9 °F 29.99 in SSW 1.0 mph 4.0 mph 70% 0.00 in
09:14 70.3 °F 59.6 °F 29.98 in Calm   3.0 mph 69% 0.00 in
09:19 70.5 °F 59.4 °F 29.99 in Calm   1.0 mph 68% 0.00 in
09:24 71.8 °F 60.2 °F 29.98 in Calm     67% 0.00 in
09:29 72.1 °F 59.7 °F 29.98 in Calm   2.0 mph 65% 0.00 in
09:34 72.1 °F 59.2 °F 29.99 in Calm     64% 0.00 in
09:39 72.7 °F 61.1 °F 29.98 in Calm     67% 0.00 in
09:44 73.5 °F 61.4 °F 29.98 in Calm   3.0 mph 66% 0.00 in
09:49 74.2 °F 59.9 °F 29.98 in WSW 3.0 mph 4.0 mph 61% 0.00 in
09:54 74.0 °F 59.7 °F 29.98 in West 1.0 mph 3.0 mph 61% 0.00 in
09:59 74.0 °F 60.2 °F 29.98 in Calm   2.0 mph 62% 0.00 in
10:04 73.8 °F 59.5 °F 29.98 in WSW 2.0 mph 3.0 mph 61% 0.00 in
10:09 74.5 °F 61.1 °F 29.97 in WSW 1.0 mph 3.0 mph 63% 0.00 in
10:14 75.6 °F 60.3 °F 29.97 in WSW 1.0 mph 3.0 mph 59% 0.00 in
10:19 76.3 °F 61.9 °F 29.97 in West 1.0 mph 4.0 mph 61% 0.00 in
10:24 76.6 °F 60.7 °F 29.97 in WNW 2.0 mph 5.0 mph 58% 0.00 in
10:29 76.2 °F 59.4 °F 29.97 in WNW 2.0 mph 5.0 mph 56% 0.00 in
10:34 75.5 °F 61.6 °F 29.97 in NW 1.0 mph 3.0 mph 62% 0.00 in
10:39 77.1 °F 61.2 °F 29.97 in West 1.0 mph 2.0 mph 58% 0.00 in
10:44 77.6 °F 61.2 °F 29.97 in WNW 2.0 mph 3.0 mph 57% 0.00 in
10:49 77.7 °F 60.8 °F 29.96 in WNW 1.0 mph 4.0 mph 56% 0.00 in
10:54 77.3 °F 61.4 °F 29.96 in SSW 1.0 mph 3.0 mph 58% 0.00 in
10:59 77.5 °F 60.6 °F 29.96 in South 2.0 mph 4.0 mph 56% 0.00 in
11:04 77.2 °F 59.8 °F 29.97 in SSE 4.0 mph 4.0 mph 55% 0.00 in
11:09 77.3 °F 58.8 °F 29.96 in South 1.0 mph 4.0 mph 53% 0.00 in
11:14 77.7 °F 59.2 °F 29.96 in South 2.0 mph 4.0 mph 53% 0.00 in
11:19 77.8 °F 58.8 °F 29.96 in South 1.0 mph 4.0 mph 52% 0.00 in
11:24 78.5 °F 59.4 °F 29.96 in South 1.0 mph 3.0 mph 52% 0.00 in
11:29 78.6 °F 59.5 °F 29.96 in SW 1.0 mph 5.0 mph 52% 0.00 in
11:34 79.3 °F 61.2 °F 29.96 in West 2.0 mph 5.0 mph 54% 0.00 in
11:39 79.2 °F 60.6 °F 29.96 in West 2.0 mph 4.0 mph 53% 0.00 in
11:44 78.9 °F 60.8 °F 29.96 in WNW 2.0 mph 5.0 mph 54% 0.00 in
11:49 79.1 °F 59.4 °F 29.95 in WSW 1.0 mph 5.0 mph 51% 0.00 in
11:54 79.2 °F 59.5 °F 29.96 in West 3.0 mph 4.0 mph 51% 0.00 in
11:59 79.3 °F 60.7 °F 29.96 in WSW 3.0 mph 3.0 mph 53% 0.00 in
12:04 79.1 °F 60.0 °F 29.95 in SW 1.0 mph 4.0 mph 52% 0.00 in
12:09 80.5 °F 61.3 °F 29.95 in SW 2.0 mph 6.0 mph 52% 0.00 in
12:14 80.9 °F 59.9 °F 29.95 in South 3.0 mph 7.0 mph 49% 0.00 in
12:19 81.4 °F 59.8 °F 29.95 in South 3.0 mph 7.0 mph 48% 0.00 in
12:24 80.0 °F 59.7 °F 29.94 in SSE 3.0 mph 7.0 mph 50% 0.00 in
12:29 80.1 °F 59.8 °F 29.95 in Calm   4.0 mph 50% 0.00 in
12:34 80.3 °F 58.8 °F 29.94 in SSW 5.0 mph 5.0 mph 48% 0.00 in
12:39 80.4 °F 59.5 °F 29.94 in WSW 3.0 mph 5.0 mph 49% 0.00 in
12:44 81.2 °F 63.5 °F 29.94 in WSW 2.0 mph 6.0 mph 55% 0.00 in
12:49 80.9 °F 59.9 °F 29.94 in West 3.0 mph 6.0 mph 49% 0.00 in
12:54 81.0 °F 58.9 °F 29.93 in WNW 2.0 mph 6.0 mph 47% 0.00 in
12:59 80.3 °F 62.7 °F 29.93 in WNW 3.0 mph 7.0 mph 55% 0.00 in
13:04 80.3 °F 59.4 °F 29.93 in Calm   5.0 mph 49% 0.00 in
13:09 80.1 °F 59.8 °F 29.93 in NW 3.0 mph 7.0 mph 50% 0.00 in
13:14 81.1 °F 61.8 °F 29.93 in West 7.0 mph 8.0 mph 52% 0.00 in
13:19 80.3 °F 62.1 °F 29.92 in WNW 4.0 mph 8.0 mph 54% 0.00 in
13:24 81.2 °F 61.9 °F 29.92 in West 3.0 mph 7.0 mph 52% 0.00 in
13:29 81.7 °F 60.1 °F 29.92 in West 3.0 mph 9.0 mph 48% 0.00 in
13:34 81.8 °F 60.2 °F 29.92 in West 4.0 mph 8.0 mph 48% 0.00 in
13:39 81.7 °F 62.4 °F 29.92 in WSW 3.0 mph 9.0 mph 52% 0.00 in
13:44 81.8 °F 61.9 °F 29.92 in West 4.0 mph 7.0 mph 51% 0.00 in
13:49 81.2 °F 59.6 °F 29.92 in West 2.0 mph 7.0 mph 48% 0.00 in
13:54 80.9 °F 62.2 °F 29.91 in West 1.0 mph 4.0 mph 53% 0.00 in
13:59 82.1 °F 63.3 °F 29.91 in West 1.0 mph 5.0 mph 53% 0.00 in
14:04 82.4 °F 62.5 °F 29.91 in West 2.0 mph 5.0 mph 51% 0.00 in
14:09 82.3 °F 61.8 °F 29.91 in Calm   6.0 mph 50% 0.00 in
14:14 81.6 °F 60.6 °F 29.91 in South 5.0 mph 6.0 mph 49% 0.00 in
14:19 81.2 °F 61.9 °F 29.91 in SSE 2.0 mph 6.0 mph 52% 0.00 in
14:24 82.3 °F 60.6 °F 29.91 in SSW 2.0 mph 6.0 mph 48% 0.00 in
14:29 82.1 °F 61.6 °F 29.91 in WNW 2.0 mph 4.0 mph 50% 0.00 in
14:34 81.6 °F 61.2 °F 29.91 in NW 1.0 mph 3.0 mph 50% 0.00 in
14:39 81.8 °F 61.9 °F 29.91 in Calm   4.0 mph 51% 0.00 in
14:44 81.4 °F 61.5 °F 29.90 in SW 1.0 mph 4.0 mph 51% 0.00 in
14:49 80.7 °F 60.9 °F 29.90 in Calm   5.0 mph 51% 0.00 in
14:54 81.2 °F 61.9 °F 29.90 in Calm   2.0 mph 52% 0.00 in
14:59 81.0 °F 61.2 °F 29.89 in Calm   3.0 mph 51% 0.00 in
15:04 81.4 °F 61.5 °F 29.90 in East 1.0 mph 5.0 mph 51% 0.00 in
15:09 81.3 °F 61.4 °F 29.90 in ENE 2.0 mph 6.0 mph 51% 0.00 in
15:14 81.6 °F 62.3 °F 29.89 in ESE 2.0 mph 6.0 mph 52% 0.00 in
15:19 82.0 °F 64.2 °F 29.89 in SE 2.0 mph 5.0 mph 55% 0.00 in
15:24 82.4 °F 61.9 °F 29.89 in South 1.0 mph 7.0 mph 50% 0.00 in
15:29 81.7 °F 60.7 °F 29.89 in WSW 2.0 mph 4.0 mph 49% 0.00 in
15:34 81.4 °F 62.1 °F 29.89 in SSE 1.0 mph 6.0 mph 52% 0.00 in
15:39 81.2 °F 60.8 °F 29.88 in SE 2.0 mph 5.0 mph 50% 0.00 in
15:44 80.8 °F 62.1 °F 29.89 in Calm   5.0 mph 53% 0.00 in
15:49 81.7 °F 61.8 °F 29.88 in ESE 5.0 mph 7.0 mph 51% 0.00 in
15:54 81.9 °F 63.6 °F 29.88 in SE 5.0 mph 6.0 mph 54% 0.00 in
15:59 82.1 °F 62.7 °F 29.88 in ESE 3.0 mph 7.0 mph 52% 0.00 in
16:04 82.1 °F 62.7 °F 29.88 in ESE 2.0 mph 7.0 mph 52% 0.00 in
16:09 82.0 °F 62.1 °F 29.88 in NNW 1.0 mph 4.0 mph 51% 0.00 in
16:14 81.5 °F 62.2 °F 29.88 in NNE 1.0 mph 5.0 mph 52% 0.00 in
16:19 81.2 °F 61.4 °F 29.87 in ENE 2.0 mph 6.0 mph 51% 0.00 in
16:24 80.9 °F 61.6 °F 29.87 in East 3.0 mph 6.0 mph 52% 0.00 in
16:29 80.7 °F 60.3 °F 29.87 in ESE 2.0 mph 6.0 mph 50% 0.00 in
16:34 80.3 °F 61.1 °F 29.87 in SSE 2.0 mph 3.0 mph 52% 0.00 in
16:39 80.2 °F 60.4 °F 29.87 in Calm   5.0 mph 51% 0.00 in
16:44 80.3 °F 61.1 °F 29.86 in South 1.0 mph 3.0 mph 52% 0.00 in
16:49 80.2 °F 61.5 °F 29.86 in SW 1.0 mph 5.0 mph 53% 0.00 in
16:54 80.8 °F 61.5 °F 29.86 in Calm   3.0 mph 52% 0.00 in
16:59 80.9 °F 62.2 °F 29.86 in NE 1.0 mph 4.0 mph 53% 0.00 in
17:04 80.6 °F 61.3 °F 29.85 in NE 1.0 mph 4.0 mph 52% 0.00 in
17:09 80.5 °F 62.8 °F 29.85 in Calm   5.0 mph 55% 0.00 in
17:14 79.9 °F 62.3 °F 29.85 in NNW 1.0 mph 6.0 mph 55% 0.00 in
17:19 79.3 °F 63.2 °F 29.85 in NNW 2.0 mph 6.0 mph 58% 0.00 in
17:24 79.0 °F 63.0 °F 29.85 in SW 1.0 mph 5.0 mph 58% 0.00 in
17:29 78.8 °F 62.8 °F 29.85 in NNW 2.0 mph 5.0 mph 58% 0.00 in
17:34 78.6 °F 62.6 °F 29.85 in North 2.0 mph 5.0 mph 58% 0.00 in
17:39 78.2 °F 62.2 °F 29.85 in NNE 4.0 mph 5.0 mph 58% 0.00 in
17:44 78.4 °F 63.4 °F 29.84 in NNW 3.0 mph 7.0 mph 60% 0.00 in
17:49 79.3 °F 64.7 °F 29.84 in NNW 1.0 mph 7.0 mph 61% 0.00 in
17:54 79.6 °F 65.9 °F 29.84 in NNE 2.0 mph 3.0 mph 63% 0.00 in
17:59 78.9 °F 65.7 °F 29.84 in North 1.0 mph 4.0 mph 64% 0.00 in
18:04 78.5 °F 65.3 °F 29.84 in North 1.0 mph 4.0 mph 64% 0.00 in
18:09 78.3 °F 64.7 °F 29.84 in NNW 2.0 mph 6.0 mph 63% 0.00 in
18:14 78.0 °F 65.3 °F 29.84 in NW 5.0 mph 7.0 mph 65% 0.00 in
18:19 77.7 °F 66.3 °F 29.84 in North 2.0 mph 8.0 mph 68% 0.00 in
18:24 77.4 °F 66.4 °F 29.84 in NE 2.0 mph 7.0 mph 69% 0.00 in
18:29 77.5 °F 66.9 °F 29.84 in ENE 4.0 mph 4.0 mph 70% 0.00 in
18:34 77.6 °F 66.6 °F 29.83 in ENE 2.0 mph 8.0 mph 69% 0.00 in
18:39 77.3 °F 66.3 °F 29.83 in NE 2.0 mph 8.0 mph 69% 0.00 in
18:44 77.1 °F 66.1 °F 29.83 in NE 3.0 mph 8.0 mph 69% 0.00 in
18:49 76.7 °F 66.2 °F 29.83 in NE 3.0 mph 8.0 mph 70% 0.00 in
18:54 76.5 °F 66.0 °F 29.83 in NE 2.0 mph 9.0 mph 70% 0.00 in
18:59 76.4 °F 65.9 °F 29.83 in ENE 2.0 mph 5.0 mph 70% 0.00 in
19:04 76.4 °F 66.3 °F 29.83 in Calm   3.0 mph 71% 0.00 in
19:09 76.5 °F 66.0 °F 29.83 in NE 1.0 mph 3.0 mph 70% 0.00 in
19:14 76.7 °F 66.2 °F 29.84 in Calm   4.0 mph 70% 0.00 in
19:19 76.8 °F 66.3 °F 29.84 in NE 3.0 mph 5.0 mph 70% 0.00 in
19:24 76.8 °F 65.9 °F 29.83 in Calm   3.0 mph 69% 0.00 in
19:29 76.7 °F 66.2 °F 29.83 in NE 2.0 mph 4.0 mph 70% 0.00 in
19:34 76.5 °F 66.0 °F 29.83 in NE 2.0 mph 3.0 mph 70% 0.00 in
19:39 76.1 °F 66.0 °F 29.83 in NE 1.0 mph 3.0 mph 71% 0.00 in
19:44 75.8 °F 65.7 °F 29.83 in Calm   3.0 mph 71% 0.00 in
19:49 75.6 °F 65.5 °F 29.84 in Calm     71% 0.00 in
19:54 75.5 °F 65.8 °F 29.84 in Calm     72% 0.00 in
19:59 75.2 °F 65.6 °F 29.84 in Calm   2.0 mph 72% 0.00 in
20:04 75.1 °F 65.5 °F 29.84 in Calm   2.0 mph 72% 0.00 in
20:09 74.9 °F 65.7 °F 29.84 in Calm   2.0 mph 73% 0.00 in
20:14 75.0 °F 65.8 °F 29.84 in Calm   4.0 mph 73% 0.00 in
20:19 74.9 °F 65.7 °F 29.84 in Calm   1.0 mph 73% 0.00 in
20:24 74.7 °F 65.5 °F 29.84 in NE 2.0 mph 3.0 mph 73% 0.00 in
20:29 74.6 °F 65.8 °F 29.84 in Calm   2.0 mph 74% 0.00 in
20:34 74.5 °F 65.7 °F 29.84 in Calm     74% 0.00 in
20:39 74.3 °F 65.5 °F 29.84 in Calm     74% 0.00 in
20:44 74.2 °F 65.4 °F 29.84 in Calm     74% 0.00 in
20:49 74.1 °F 65.3 °F 29.84 in Calm     74% 0.00 in
20:54 73.9 °F 65.1 °F 29.84 in Calm     74% 0.00 in
20:59 73.8 °F 65.4 °F 29.84 in Calm     75% 0.00 in
21:04 73.8 °F 65.4 °F 29.84 in Calm     75% 0.00 in
21:09 73.9 °F 65.5 °F 29.85 in Calm     75% 0.00 in
21:14 74.0 °F 65.2 °F 29.84 in WNW 2.0 mph 3.0 mph 74% 0.00 in
21:19 74.0 °F 65.2 °F 29.84 in WNW 1.0 mph 3.0 mph 74% 0.00 in
21:24 73.7 °F 65.3 °F 29.84 in Calm     75% 0.00 in
21:29 73.4 °F 65.0 °F 29.84 in Calm     75% 0.00 in
21:34 73.2 °F 64.8 °F 29.84 in Calm   1.0 mph 75% 0.00 in
21:39 73.0 °F 64.6 °F 29.85 in Calm   2.0 mph 75% 0.00 in
21:44 72.8 °F 64.8 °F 29.85 in Calm   2.0 mph 76% 0.00 in
21:49 72.7 °F 64.7 °F 29.84 in Calm     76% 0.00 in
21:54 72.6 °F 64.6 °F 29.84 in Calm     76% 0.00 in
21:59 72.4 °F 64.4 °F 29.84 in Calm     76% 0.00 in
22:04 72.4 °F 64.4 °F 29.84 in Calm     76% 0.00 in
22:09 72.3 °F 64.3 °F 29.84 in Calm     76% 0.00 in
22:14 72.1 °F 64.1 °F 29.84 in Calm     76% 0.00 in
22:19 71.9 °F 63.9 °F 29.84 in Calm     76% 0.00 in
22:24 71.9 °F 64.3 °F 29.84 in Calm     77% 0.00 in
22:29 71.6 °F 63.6 °F 29.84 in Calm     76% 0.00 in
22:34 71.3 °F 63.7 °F 29.84 in Calm     77% 0.00 in
22:39 71.0 °F 63.4 °F 29.84 in Calm     77% 0.00 in
22:44 70.8 °F 63.6 °F 29.84 in Calm     78% 0.00 in
22:49 70.5 °F 63.3 °F 29.84 in Calm     78% 0.00 in
22:54 70.3 °F 63.5 °F 29.84 in Calm     79% 0.00 in
22:59 70.0 °F 63.2 °F 29.84 in Calm     79% 0.00 in
23:04 69.8 °F 63.3 °F 29.84 in Calm     80% 0.00 in
23:09 69.6 °F 63.2 °F 29.84 in Calm   3.0 mph 80% 0.00 in
23:14 69.6 °F 63.5 °F 29.84 in SW 1.0 mph 4.0 mph 81% 0.00 in
23:19 69.6 °F 63.2 °F 29.84 in SSW 1.0 mph 4.0 mph 80% 0.00 in
23:24 69.7 °F 62.9 °F 29.84 in SW 1.0 mph 4.0 mph 79% 0.00 in
23:29 69.6 °F 62.4 °F 29.84 in Calm   2.0 mph 78% 0.00 in
23:34 69.4 °F 62.2 °F 29.84 in Calm     78% 0.00 in
23:39 69.3 °F 62.1 °F 29.84 in Calm     78% 0.00 in
23:44 69.0 °F 61.5 °F 29.84 in Calm     77% 0.00 in
23:49 68.8 °F 61.3 °F 29.84 in Calm     77% 0.00 in
23:54 68.6 °F 60.7 °F 29.84 in Calm     76% 0.00 in
23:59 68.3 °F 60.4 °F 29.84 in Calm     76% 0.00 in
Buffalo, New York, USA
Compliments of Weather Underground - 2.5 mb